Location: Zagreb
(45.8000°N, 16.0000°E)
Time: 18:12:42
(UTC+02:00)

A-11 Canister half - Pass Details

Date: 14 August 2022
Orbit: 1524 x 1684 km, 47.3° (Epoch: 05 October)

Event Time Altitude Azimuth Distance (km) Brightness Sun altitude
Rises 09:38:48 0° 281° (WNW) 4,940 11.2 37.4°
Reaches altitude 10° 09:41:59 10° 282° (WNW) 3,951 10.8 37.9°
Maximum altitude 09:52:13 89° 12° (NNE) 1,676 9.9 39.6°
Drops below altitude 10° 10:02:14 10° 105° (ESE) 3,874 12.2 41.2°
Sets 10:05:19 0° 105° (ESE) 4,840 12.4 41.6°
